Weather Roundup
Issued by NWS

Home | Current Version | Previous Version | Text Only | Print | Product List | Glossary On
Versions: 1 2 3 4 5 6 7 8 9 10 11 12 13 14 15 16 17 18 19 20 21 22 23 24 25 26 27 28 29 30 31 32 33 34 35 36 37 38 39 40 41 42 43 44 45 46 47 48 49 50
187
NZUS93 KARX 240210
HRRWXR

CURRENT HOURLY OBSERVATIONS ACROSS
MUCH OF THE UPPER MISSISSIPPI VALLEY
NATIONAL WEATHER SERVICE LA CROSSE WI
900 PM CDT THU MAR 23 2017


...SOUTHEAST MINNESOTA...


CITY           SKY/WX    TMP DP  RH WIND       PRES   REMARKS
ROCHESTER      CLOUDY    37  35  92 SE14      29.85F WCI  28
ROCHESTER/MAYO CLOUDY    38  38  99 SE13      29.84F WCI  30
WINONA         CLOUDY    37  34  87 SE6       29.91R WCI  33
AUSTIN         CLOUDY    37  36  93 SE9       29.82F WCI  31
ALBERT LEA     MOCLDY    37  37 100 E10       29.82F WCI  30
DODGE CENTER   CLOUDY    39  36  87 SE15      29.82F WCI  31
PRESTON        CLOUDY    37  34  91 E7        29.90R WCI  31
OWATONNA       CLOUDY    39  36  87 SE13      29.80F WCI  32
FARIBAULT      CLOUDY    39  37  93 SE9       29.80F WCI  33
$$

...ELSEWHERE IN MINNESOTA...


CITY           SKY/WX    TMP DP  RH WIND       PRES   REMARKS
MINNEAPOLIS    CLOUDY    39  34  82 SE12      29.82F WCI  32
INTNL FALLS    CLOUDY    33  31  92 CALM      29.84S
DULUTH         LGT RAIN  32  30  92 S10       29.88F FOG     WCI  24
RED WING       CLOUDY    41  34  75 SE9       29.84F
REDWOOD FALLS  LGT RAIN  39  34  82 E6        29.78R WCI  35
MANKATO        NOT AVBL
WORTHINGTON    CLOUDY    40  36  86 SE14      29.71S WCI  32
FAIRMONT       CLOUDY    40  35  83 SE14      29.77R WCI  32
$$

...SOUTHWEST WISCONSIN...


CITY           SKY/WX    TMP DP  RH WIND       PRES   REMARKS
LA CROSSE      CLOUDY    41  35  79 CALM      29.93R
PRAIRIE DU CHI CLOUDY    40  33  74 SE9       29.95R WCI  34
BOSCOBEL       MOCLDY    42  33  70 CALM      29.95F
LONE ROCK      PTCLDY    39  33  79 SE8       29.96R WCI  33
PLATTEVILLE    CLOUDY    39  33  77 SE14G23   29.93F WCI  31
FORT MC COY    CLOUDY    39  36  89 CALM      29.92R
CAMP DOUGLAS   CLOUDY    38  34  85 SE9       29.92R WCI  31
MAUSTON-NEW LI LGT RAIN  38  34  86 SE9       29.90F WCI  31
VIROQUA        FAIR      36  34  92 SE21G29   29.85F WCI  25
WIS DELLS      CLOUDY    38  34  84 S14       29.93R WCI  30
$$

...ELSEWHERE IN WISCONSIN...


CITY           SKY/WX    TMP DP  RH WIND       PRES   REMARKS
MILWAUKEE      TSTM      41  33  73 CALM      30.09R
MADISON        CLOUDY    40  34  79 SE15      29.96F WCI  32
GREEN BAY      CLOUDY    37  29  72 S13       30.00F WCI  29
EAU CLAIRE     CLOUDY    41  31  67 S10       29.87F
BLACK RVR FLS  MOCLDY    39  35  83 S5        29.92R
MEDFORD        CLOUDY    36  26  67 S9        29.88R WCI  29
WAUSAU         CLOUDY    36  28  73 S13       29.91S WCI  27
WIS RAPIDS     CLOUDY    39  30  70 SE8       29.93F WCI  33
MARSHFIELD     CLOUDY    38  28  67 S14       29.90R WCI  30
RICE LAKE      CLOUDY    39  29  68 CALM      29.91R
$$

...NORTHEAST IOWA...


CITY           SKY/WX    TMP DP  RH WIND       PRES   REMARKS
WATERLOO       CLOUDY    40  36  86 E16       29.85S WCI  31
DUBUQUE        CLOUDY    39  32  76 SE10      29.93F WCI  32
DECORAH        MIX PCPN  39  36  87 S13G22    29.88S WCI  32
MASON CITY     CLOUDY    40  37  89 SE16      29.81F WCI  31
CHARLES CITY   CLOUDY    41  41 100 SE18      29.84F
OELWEIN        CLOUDY    39  37  93 E13       29.92R WCI  32
$$

...ELSEWHERE IN IOWA...


CITY           SKY/WX    TMP DP  RH WIND       PRES   REMARKS
DES MOINES     PTCLDY    56  38  50 SE9       29.77R
IOWA CITY      MOCLDY    45  38  76 E9        29.90R
FORT DODGE     MOCLDY    45  36  70 SE17      29.74F
MARSHALLTOWN   MOCLDY    45  37  73 E12       29.82R
CEDAR RAPIDS   MOCLDY    43  38  82 SE15      29.86S
$$

...NORTHERN ILLINOIS...


CITY           SKY/WX    TMP DP  RH WIND       PRES   REMARKS
CHICAGO-OHARE  CLOUDY    47  33  58 S14       30.02F
CHICAGO-MIDWAY CLOUDY    49  32  52 SE14G21   30.04F
MOLINE         CLOUDY    44  37  76 SE9G18    29.92R
ROCKFORD       CLOUDY    44  31  60 S16       30.03S
PEORIA         CLEAR     45  37  73 S14       29.99F
$$

NOTE: "FAIR" INDICATES FEW OR NO CLOUDS BELOW 12,000 FEET WITH NO
SIGNIFICANT WEATHER AND/OR OBSTRUCTIONS TO VISIBILITY. WIND
SPEEDS ARE IN MILES-PER-HOUR.




USA.gov is the U.S. government's official web portal to all federal, state and local government web resources and services.